Temp
6 5 5 3 3 5 5 5 6 2 1 -1 -2 -2 -3 -4 -5 -5 -5 -6 -6 -7 -7 -5 -5 -5 -4 -3 -2 -1 -1 -1 -1 -0 1 2 3 3 3 4 5 5 6 6
5 5 5 3 2 3 3 3 2 2 0 -1 -3 -4 -4 -5 -6 -6 -6 -6 -7 -8 -8 -7 -7 -7 -6 -5 -3 -3 -1 -2 -2 -1 0 1 1 1 2 3 3 3 4 4
7 4 5 4 2 2 3 3 4 4 1 -1 -2 -4 -5 -5 -6 -6 -7 -7 -8 -9 -9 -9 -8 -8 -7 -7 -6 -3 -2 -1 -1 -1 -1 -0 1 1 1 1 1 2 2 3
8 6 6 2 2 2 2 2 2 1 -0 -1 -3 -5 -6 -7 -7 -7 -8 -8 -9 -8 -8 -9 -9 -8 -8 -8 -7 -4 -2 -2 -2 -2 -1 -1 -0 0 0 0 1 1 1 1
7 7 4 3 3 3 3 1 2 1 -0 -2 -4 -2 -5 -7 -8 -9 -8 -8 -9 -9 -9 -9 -9 -8 -8 -8 -7 -5 -4 -3 -2 -2 -2 -1 -1 -1 -1 -0 0 -0 0 1
7 7 7 4 2 1 3 4 1 1 1 -0 -2 1 -2 -8 -9 -9 -8 -8 -8 -8 -9 -9 -9 -9 -8 -7 -7 -6 -6 -5 -4 -4 -3 -3 -3 -3 -2 -2 -2 -2 -2 -2
7 6 5 2 1 1 4 2 0 -0 0 1 -0 -4 -8 -9 -9 -9 -9 -8 -8 -8 -9 -9 -9 -9 -9 -9 -8 -7 -7 -6 -5 -4 -4 -4 -4 -3 -3 -3 -2 -2 -2 -3
6 6 5 0 1 3 1 0 -0 -1 -2 -3 -5 -6 -8 -9 -9 -9 -9 -8 -8 -8 -9 -9 -9 -9 -9 -9 -8 -8 -7 -8 -7 -6 -5 -5 -5 -4 -4 -4 -4 -4 -3 -3
3 3 0 -1 -0 0 0 -0 -1 -2 -3 -4 -5 -6 -7 -8 -8 -8 -8 -8 -9 -9 -9 -9 -9 -9 -9 -9 -8 -8 -8 -8 -8 -6 -7 -7 -6 -6 -7 -7 -8 -9 -9 -7
2 -0 -0 -1 -2 -1 -1 -2 -2 -3 -4 -4 -5 -6 -7 -7 -8 -8 -8 -9 -9 -9 -9 -10 -10 -9 -9 -10 -9 -9 -9 -9 -9 -9 -9 -9 -10 -9 -8 -7 -9 -10 -9 -9
0 -1 -1 -1 -2 -3 -3 -3 -4 -4 -5 -5 -5 -6 -7 -8 -8 -9 -9 -10 -10 -10 -10 -10 -10 -9 -9 -10 -10 -9 -9 -10 -10 -10 -10 -10 -10 -10 -11 -10 -11 -10 -10 -11
4 0 1 -1 -2 -3 -4 -4 -5 -5 -6 -6 -6 -7 -8 -8 -9 -9 -10 -10 -10 -11 -11 -11 -11 -9 -9 -10 -11 -11 -11 -11 -11 -11 -11 -11 -11 -11 -11 -10 -10 -10 -10 -10
1 -0 -1 -2 -3 -3 -4 -5 -5 -6 -7 -7 -8 -8 -8 -9 -9 -8 -10 -10 -10 -10 -10 -10 -10 -9 -8 -9 -10 -10 -12 -12 -12 -12 -12 -12 -12 -12 -12 -12 -13 -12 -11 -10
-1 -2 -3 -3 -3 -4 -5 -6 -7 -7 -7 -8 -8 -9 -9 -9 -10 -10 -10 -10 -9 -10 -9 -9 -10 -9 -9 -10 -10 -10 -12 -12 -13 -13 -13 -13 -13 -13 -13 -13 -13 -14 -14 -12
-1 -1 -1 -3 -4 -5 -6 -6 -7 -7 -8 -9 -9 -9 -9 -9 -8 -9 -9 -10 -9 -9 -9 -10 -10 -10 -10 -10 -10 -11 -12 -12 -13 -14 -14 -14 -14 -14 -14 -14 -14 -14 -15 -15
-1 -2 -3 -3 -4 -5 -6 -6 -6 -8 -8 -8 -8 -7 -7 -8 -9 -9 -9 -9 -10 -10 -10 -10 -10 -10 -10 -10 -11 -12 -13 -12 -12 -14 -14 -14 -14 -14 -14 -15 -15 -15 -16 -17
-2 -2 -2 -3 -4 -5 -5 -6 -6 -7 -7 -7 -6 -7 -8 -8 -9 -9 -9 -10 -10 -10 -11 -11 -10 -10 -10 -11 -11 -13 -14 -15 -14 -15 -15 -15 -15 -15 -15 -15 -15 -16 -16 -17
-0 -1 -2 -3 -4 -5 -6 -6 -6 -6 -6 -6 -7 -8 -8 -8 -9 -9 -10 -10 -10 -11 -11 -11 -11 -11 -12 -12 -12 -13 -15 -15 -16 -16 -16 -16 -17 -16 -16 -16 -16 -17 -17 -17
-2 -2 -3 -4 -4 -5 -6 -6 -6 -6 -6 -6 -7 -7 -7 -8 -9 -10 -10 -11 -11 -12 -12 -11 -11 -12 -12 -13 -13 -16 -17 -17 -17 -17 -17 -17 -17 -17 -17 -17 -17 -18 -18 -18
-3 -3 -3 -4 -5 -4 -4 -5 -5 -6 -6 -6 -7 -7 -8 -8 -9 -10 -11 -11 -12 -12 -12 -12 -13 -13 -14 -14 -15 -17 -18 -18 -18 -18 -18 -18 -18 -18 -18 -18 -19 -19 -19 -19
-2 -2 -2 -3 -3 -4 -5 -5 -5 -5 -6 -7 -8 -7 -7 -8 -10 -10 -11 -13 -13 -13 -13 -13 -14 -15 -17 -16 -17 -18 -18 -18 -18 -18 -19 -19 -19 -19 -19 -19 -19 -19 -19 -20
-2 -2 -3 -3 -4 -4 -5 -5 -5 -6 -7 -7 -7 -7 -8 -9 -10 -11 -12 -13 -13 -13 -14 -14 -16 -16 -16 -17 -18 -18 -18 -18 -19 -19 -19 -19 -19 -19 -20 -20 -20 -20 -20 -20
-3 -3 -3 -4 -4 -5 -5 -5 -6 -7 -7 -7 -8 -8 -9 -11 -12 -13 -13 -13 -13 -14 -14 -16 -16 -16 -17 -17 -18 -18 -18 -19 -19 -19 -19 -19 -20 -20 -20 -20 -20 -21 -20 -21
-3 -4 -5 -5 -5 -6 -6 -6 -7 -7 -8 -8 -9 -10 -11 -11 -11 -12 -12 -13 -14 -14 -15 -16 -16 -16 -17 -17 -18 -18 -19 -18 -19 -19 -19 -19 -20 -20 -20 -20 -21 -21 -21 -21
-4 -4 -5 -5 -6 -6 -7 -7 -7 -8 -8 -9 -10 -11 -11 -11 -12 -13 -14 -14 -14 -15 -16 -16 -16 -17 -17 -18 -18 -18 -19 -19 -19 -19 -19 -20 -20 -20 -20 -20 -21 -21 -21 -22
-5 -5 -6 -6 -7 -7 -7 -7 -8 -9 -9 -10 -11 -12 -12 -12 -12 -13 -13 -13 -14 -15 -16 -16 -17 -17 -17 -18 -18 -18 -19 -19 -19 -19 -19 -20 -20 -20 -20 -21 -21 -21 -21 -21
-6 -6 -7 -7 -7 -8 -8 -8 -9 -10 -10 -12 -12 -12 -13 -13 -13 -14 -14 -15 -16 -16 -16 -17 -17 -17 -17 -17 -18 -19 -19 -19 -20 -20 -20 -20 -20 -21 -21 -21 -21 -21 -22 -22
Height
1489 1493 1495 1497 1488 1476 1475 1477 1472 1496 1502 1511 1513 1512 1512 1509 1503 1498 1493 1488 1482 1475 1467 1460 1453 1451 1447 1446 1442 1437 1440 1438 1437 1437 1434 1429 1425 1423 1421 1419 1416 1415 1412 1411
1486 1491 1492 1497 1494 1488 1487 1490 1494 1498 1507 1514 1516 1515 1513 1511 1507 1503 1499 1495 1491 1485 1478 1473 1469 1464 1457 1455 1451 1451 1447 1443 1442 1439 1435 1434 1431 1428 1425 1422 1418 1415 1413 1411
1472 1488 1486 1489 1500 1496 1494 1493 1490 1487 1506 1514 1516 1516 1516 1513 1511 1507 1503 1500 1494 1489 1486 1483 1480 1477 1473 1470 1462 1456 1452 1448 1445 1444 1441 1437 1435 1431 1427 1424 1423 1420 1416 1412
1468 1479 1473 1499 1503 1503 1500 1502 1501 1505 1510 1513 1517 1518 1518 1516 1513 1510 1507 1503 1499 1494 1490 1487 1484 1481 1476 1471 1468 1461 1456 1454 1452 1449 1445 1441 1438 1434 1431 1429 1426 1422 1419 1416
1466 1466 1490 1497 1497 1499 1496 1505 1506 1505 1510 1514 1516 1515 1517 1517 1515 1512 1510 1507 1504 1501 1496 1492 1488 1485 1480 1475 1470 1466 1461 1456 1452 1449 1448 1445 1441 1438 1435 1432 1430 1426 1424 1420
1467 1464 1466 1486 1496 1500 1499 1492 1506 1506 1506 1509 1513 1504 1516 1518 1516 1513 1512 1510 1507 1505 1502 1496 1492 1488 1483 1478 1474 1469 1466 1463 1461 1458 1455 1452 1448 1445 1442 1439 1436 1433 1429 1426
1466 1467 1481 1494 1497 1498 1489 1500 1506 1506 1506 1507 1510 1516 1519 1518 1516 1513 1513 1511 1509 1507 1503 1500 1496 1492 1487 1484 1480 1478 1473 1470 1466 1463 1460 1457 1455 1451 1448 1445 1441 1438 1434 1430
1471 1470 1472 1496 1497 1490 1498 1502 1505 1507 1509 1511 1515 1518 1519 1518 1518 1516 1514 1513 1511 1509 1505 1502 1497 1494 1492 1488 1488 1483 1478 1475 1471 1467 1463 1461 1458 1454 1451 1447 1444 1441 1437 1433
1484 1483 1494 1496 1495 1497 1499 1501 1505 1507 1511 1514 1516 1518 1519 1519 1518 1517 1516 1514 1512 1510 1508 1502 1499 1497 1493 1491 1489 1487 1481 1477 1475 1471 1467 1464 1460 1456 1454 1450 1446 1444 1441 1436
1487 1497 1497 1498 1498 1499 1501 1504 1506 1509 1511 1514 1516 1518 1519 1519 1519 1518 1517 1515 1514 1512 1509 1506 1502 1499 1496 1494 1493 1492 1485 1482 1481 1477 1475 1471 1466 1462 1458 1453 1449 1447 1444 1440
1493 1497 1499 1500 1501 1501 1502 1505 1507 1510 1512 1514 1516 1517 1518 1519 1519 1519 1518 1516 1515 1513 1511 1509 1506 1502 1499 1497 1495 1492 1488 1487 1482 1481 1477 1475 1472 1467 1463 1460 1457 1454 1450 1447
1477 1488 1491 1496 1501 1503 1504 1506 1508 1510 1513 1515 1517 1518 1519 1519 1520 1520 1518 1517 1516 1514 1512 1509 1506 1503 1501 1499 1497 1493 1491 1489 1485 1483 1480 1477 1475 1472 1467 1463 1459 1457 1454 1449
1484 1488 1491 1496 1501 1504 1505 1508 1510 1512 1513 1515 1517 1518 1519 1519 1518 1518 1518 1517 1516 1514 1512 1510 1507 1505 1502 1500 1497 1495 1494 1490 1489 1485 1482 1479 1476 1473 1470 1467 1463 1458 1454 1449
1485 1488 1494 1496 1500 1504 1506 1508 1510 1512 1514 1515 1516 1518 1519 1518 1519 1520 1519 1518 1517 1515 1513 1511 1509 1506 1504 1501 1499 1497 1494 1491 1489 1486 1483 1480 1477 1474 1471 1468 1464 1460 1455 1450
1486 1488 1490 1494 1497 1502 1505 1507 1510 1512 1514 1515 1516 1517 1518 1519 1519 1519 1518 1517 1516 1515 1514 1512 1509 1507 1505 1502 1499 1496 1494 1491 1488 1487 1484 1481 1478 1476 1473 1470 1466 1462 1457 1451
1485 1487 1490 1494 1497 1499 1503 1506 1509 1510 1512 1513 1514 1515 1517 1517 1518 1518 1518 1517 1516 1514 1513 1511 1508 1506 1504 1501 1499 1496 1494 1490 1488 1487 1484 1481 1479 1476 1473 1470 1467 1463 1458 1451
1482 1487 1490 1493 1496 1500 1502 1505 1507 1508 1509 1511 1513 1515 1516 1517 1517 1517 1517 1516 1514 1513 1512 1510 1507 1505 1503 1500 1498 1495 1493 1491 1487 1486 1483 1480 1478 1475 1472 1470 1466 1463 1459 1452
1483 1485 1488 1491 1493 1496 1500 1502 1504 1505 1508 1510 1512 1513 1514 1515 1516 1516 1516 1515 1513 1511 1510 1508 1506 1504 1501 1499 1497 1494 1492 1489 1487 1484 1481 1479 1475 1474 1471 1468 1465 1462 1458 1454
1482 1484 1487 1489 1492 1495 1497 1499 1502 1504 1506 1508 1510 1511 1512 1513 1514 1514 1514 1512 1511 1510 1509 1507 1504 1502 1500 1497 1495 1493 1490 1487 1485 1482 1479 1477 1475 1472 1469 1466 1463 1460 1456 1453
1481 1484 1486 1488 1491 1493 1495 1497 1500 1502 1504 1506 1508 1509 1510 1511 1512 1512 1511 1510 1510 1509 1507 1504 1502 1499 1497 1495 1492 1491 1488 1486 1484 1481 1478 1475 1473 1470 1467 1464 1461 1458 1454 1451
1480 1483 1485 1487 1489 1491 1494 1496 1498 1501 1503 1504 1506 1507 1508 1508 1509 1509 1509 1508 1507 1506 1504 1501 1499 1497 1495 1493 1491 1489 1487 1485 1482 1479 1476 1474 1471 1468 1465 1462 1458 1455 1452 1449
1479 1482 1484 1486 1488 1490 1492 1495 1497 1499 1501 1502 1504 1504 1505 1506 1507 1507 1507 1507 1505 1503 1501 1499 1497 1495 1493 1491 1490 1488 1485 1483 1480 1477 1474 1472 1469 1466 1462 1459 1455 1453 1449 1447
1478 1480 1483 1485 1487 1489 1491 1493 1495 1497 1499 1501 1502 1502 1504 1505 1505 1505 1505 1503 1501 1499 1498 1497 1495 1493 1491 1488 1487 1485 1483 1480 1477 1474 1472 1469 1466 1462 1459 1455 1452 1449 1447 1444
1477 1479 1481 1483 1485 1487 1489 1491 1493 1495 1497 1498 1500 1501 1501 1502 1502 1501 1501 1499 1498 1496 1495 1494 1491 1490 1488 1486 1484 1482 1479 1477 1474 1471 1468 1465 1461 1458 1455 1452 1449 1446 1444 1441
1475 1477 1478 1480 1483 1485 1487 1489 1491 1493 1494 1496 1497 1498 1499 1499 1499 1499 1497 1495 1493 1492 1491 1490 1488 1486 1484 1482 1481 1478 1475 1472 1469 1466 1463 1460 1457 1454 1451 1448 1445 1442 1439 1437
1473 1475 1477 1479 1481 1483 1484 1487 1489 1490 1492 1494 1495 1496 1496 1496 1495 1494 1492 1490 1489 1488 1487 1486 1484 1482 1480 1478 1475 1473 1470 1466 1463 1460 1457 1454 1451 1448 1446 1443 1440 1437 1435 1432
1471 1473 1475 1477 1478 1480 1482 1484 1486 1488 1490 1492 1494 1494 1493 1492 1491 1490 1488 1487 1486 1485 1483 1481 1479 1477 1475 1473 1470 1467 1464 1461 1457 1454 1450 1448 1445 1442 1440 1437 1434 1432 1429 1427
Wind_Speed
12 9 12 10 12 10 4 4 2 7 6 6 8 9 13 14 17 21 24 26 28 29 31 35 37 37 35 33 34 35 30 31 32 32 29 27 25 24 23 19 18 16 11 6
8 7 5 11 13 8 13 14 13 12 7 5 7 8 11 15 16 19 20 22 23 24 27 29 31 30 33 30 29 26 28 30 29 30 31 33 33 30 27 26 25 23 21 19
4 4 5 2 7 8 11 10 4 4 6 7 6 9 12 14 15 16 18 20 22 23 22 22 24 23 24 25 25 28 29 29 29 28 29 31 31 31 33 33 30 29 27 25
2 6 4 6 7 10 12 9 9 10 9 7 9 11 11 12 12 14 16 17 19 21 22 22 21 22 22 25 27 31 32 31 29 29 28 28 29 30 30 30 31 30 30 30
3 1 6 7 5 3 2 4 4 5 9 10 9 6 13 12 10 11 13 14 15 17 20 19 20 20 22 26 29 34 35 34 33 31 30 29 29 29 28 28 28 29 29 28
4 4 6 6 4 2 3 4 3 1 4 10 11 3 4 7 8 10 12 13 14 15 16 20 21 20 23 28 30 31 34 32 30 30 30 29 28 27 26 25 25 25 26 28
3 2 4 3 3 5 5 4 6 7 6 5 5 7 6 4 7 9 11 13 13 15 17 18 18 19 22 23 28 25 24 28 29 28 28 28 27 27 26 25 24 25 25 26
2 3 4 2 5 4 9 12 11 11 12 15 14 10 7 7 8 9 11 12 13 14 16 18 19 19 21 23 21 21 24 24 27 28 28 28 27 27 26 26 26 26 26 27
4 4 5 7 11 13 11 14 12 13 11 11 11 9 8 8 8 10 11 11 12 13 15 18 20 20 22 22 21 21 22 24 24 26 27 28 28 28 28 28 26 26 25 27
5 4 6 8 9 10 11 13 12 12 12 10 10 9 9 8 9 9 10 11 11 12 15 16 18 19 20 20 19 18 20 21 20 21 21 21 21 24 26 30 29 27 27 27
4 7 8 5 8 12 14 14 13 11 10 10 10 10 9 9 8 8 8 10 11 12 13 14 15 17 18 19 19 18 18 18 20 18 19 18 18 23 22 23 24 23 23 22
2 15 2 16 13 13 14 13 11 12 11 10 10 11 10 9 8 8 8 9 10 11 12 13 14 16 17 18 18 17 16 17 18 17 17 17 16 15 20 19 20 21 21 20
4 16 9 18 16 12 14 14 12 12 11 12 10 10 9 9 8 8 8 8 9 11 12 12 13 15 16 17 17 17 15 17 15 16 16 16 16 16 16 16 19 20 19 20
16 20 17 20 12 15 15 14 14 13 12 12 12 10 9 8 8 6 6 6 8 10 11 11 11 13 14 14 14 15 14 15 14 14 14 14 14 15 15 17 18 18 19 20
17 4 13 17 21 19 17 16 15 14 13 12 11 10 8 7 5 4 4 6 7 8 9 10 10 11 12 13 15 16 15 16 14 13 13 13 12 13 13 14 15 16 17 18
12 12 17 19 19 19 18 15 14 14 13 11 10 8 6 5 3 2 2 4 6 8 9 10 11 13 14 14 14 13 13 15 14 11 12 12 12 12 13 13 14 15 16 18
17 15 17 18 19 17 16 13 12 13 13 11 9 7 6 4 1 1 4 5 6 7 10 11 12 13 14 14 14 13 12 12 14 11 11 11 11 12 12 13 13 13 14 19
11 10 13 15 18 18 15 13 12 12 12 11 9 7 5 3 1 3 4 4 6 9 10 12 12 12 12 13 13 12 12 12 12 11 11 12 12 11 12 12 13 13 13 14
10 10 13 14 15 15 14 13 12 13 12 10 8 6 4 3 4 5 4 4 6 8 11 11 11 11 12 12 12 11 11 12 11 10 11 11 11 11 12 12 12 13 13 13
12 10 13 13 14 14 14 13 12 13 11 10 8 6 5 5 5 4 3 5 5 8 10 11 11 11 12 12 13 10 11 10 10 10 11 11 11 12 12 13 13 13 12 12
14 13 14 14 14 14 12 12 13 13 12 10 8 7 6 6 5 4 5 5 9 10 11 12 11 10 10 12 9 9 10 10 11 11 11 11 12 12 12 12 12 12 12 12
15 14 14 14 14 14 15 15 14 13 11 10 10 7 6 6 6 6 7 7 10 11 12 11 10 11 11 12 9 10 10 11 11 11 11 11 11 12 12 13 13 12 12 12
17 16 14 15 14 14 16 15 14 13 11 10 9 7 6 6 7 7 7 12 12 13 12 11 11 12 12 14 10 11 12 13 13 13 12 12 13 13 13 13 13 13 12 12
16 16 16 18 16 16 17 16 14 13 12 11 10 8 6 7 10 12 12 15 16 15 14 11 14 13 13 13 11 13 14 14 14 14 14 15 14 14 14 14 14 13 13 13
15 17 18 18 18 17 16 15 14 13 12 11 10 8 8 9 11 9 13 13 15 16 14 14 14 15 16 13 14 14 15 16 16 17 17 16 15 15 15 15 15 15 15 14
15 17 17 17 16 17 18 16 14 13 13 11 9 9 9 11 12 13 13 13 13 13 13 12 13 14 15 15 16 17 17 17 18 18 18 17 16 16 17 17 17 16 15 15
16 17 17 19 19 17 16 14 13 11 11 9 8 9 9 12 13 12 12 10 9 10 12 13 15 18 20 21 20 17 17 18 18 18 16 16 17 17 18 18 17 17 16 15
Wind_Direction
138 107 51 10 15 28 76 29 2 119 98 57 38 32 26 12 10 15 18 18 17 16 18 30 36 28 36 43 49 54 54 55 53 53 54 56 54 54 52 42 39 32 21 351
188 199 98 31 21 59 84 91 98 116 96 84 71 47 32 23 19 17 18 19 18 20 25 27 25 25 31 35 42 47 51 51 49 50 50 52 51 49 49 48 41 36 32 28
159 176 188 160 9 51 72 49 135 114 112 135 97 63 37 25 25 24 18 16 18 21 23 23 25 25 31 30 38 47 51 52 51 47 46 47 47 46 45 44 41 38 35 31
156 185 196 118 116 87 78 60 79 106 141 136 116 95 58 34 27 27 24 20 20 25 28 27 27 28 32 37 39 49 51 51 49 47 45 44 44 43 41 40 39 37 36 33
248 112 110 162 175 207 317 79 42 149 164 160 162 164 58 29 31 34 30 28 24 24 27 30 30 30 35 41 44 48 47 47 46 45 44 43 41 39 38 35 35 35 33 32
197 222 212 97 148 202 289 155 36 97 157 185 196 241 65 17 31 40 41 34 32 32 32 31 34 33 36 39 40 43 42 44 44 44 43 43 43 41 41 39 35 34 33 32
194 231 116 75 185 176 241 102 110 84 102 130 116 69 112 65 49 50 44 37 38 35 36 34 33 31 36 34 35 32 38 38 39 41 40 39 38 38 37 37 36 34 32 30
204 209 195 48 166 246 118 125 120 98 94 101 110 112 101 80 67 55 51 45 42 39 36 34 34 34 32 34 25 25 29 32 30 31 30 30 30 30 29 27 25 24 24 25
353 38 91 70 100 120 129 129 125 118 114 117 119 115 104 85 70 61 53 47 43 39 36 35 33 32 32 25 23 21 25 27 25 25 21 21 21 21 21 22 21 18 15 15
184 118 115 108 106 117 129 130 128 126 123 126 124 117 102 86 75 65 56 48 42 39 37 34 31 30 31 24 22 20 25 24 22 21 24 21 20 20 17 16 17 13 12 10
86 134 132 137 129 128 125 126 123 118 122 126 126 120 113 97 85 74 60 49 44 40 36 32 28 29 28 24 20 22 21 18 21 18 20 21 18 14 19 17 14 12 10 9
126 167 218 161 152 142 136 134 132 130 127 126 130 130 126 116 100 82 65 53 45 39 35 28 25 23 23 23 20 20 17 15 12 13 14 16 15 15 359 8 5 0 1 3
142 152 144 149 148 151 146 143 142 142 138 135 133 132 123 111 98 81 66 53 44 36 30 25 22 18 18 19 16 15 11 11 7 9 10 8 8 6 0 358 355 352 356 352
141 128 128 151 157 152 146 143 139 137 137 137 136 132 127 113 95 86 70 51 37 29 23 20 17 13 12 12 11 10 12 3 6 2 1 1 1 358 357 354 351 351 351 351
154 156 167 156 149 149 149 147 144 144 144 140 139 137 131 123 115 90 60 39 28 21 18 17 12 9 8 7 8 6 4 359 2 356 353 356 354 352 351 349 347 346 345 349
156 140 146 153 156 157 156 157 156 154 153 149 144 143 140 135 122 74 29 23 26 16 9 6 7 3 3 4 4 359 357 353 357 353 350 351 349 347 345 344 344 344 343 350
154 159 162 163 166 167 167 162 162 160 159 161 163 161 155 152 142 5 356 357 358 3 3 1 359 357 354 355 358 354 351 348 353 351 347 345 344 341 340 338 337 339 340 331
186 183 179 176 171 170 170 171 170 171 171 175 174 171 171 183 232 303 304 321 350 356 353 352 349 347 349 350 348 349 347 347 346 345 345 340 338 335 332 332 332 332 334 334
169 167 169 172 175 174 173 178 180 180 180 179 179 183 203 229 258 268 280 325 340 345 339 340 339 342 341 340 347 346 345 343 343 341 339 339 335 332 329 328 326 326 328 330
169 174 176 176 177 184 186 190 188 183 185 188 192 202 216 241 251 259 291 313 321 321 327 332 336 337 336 338 344 343 341 341 338 337 332 339 331 330 326 323 324 323 325 326
189 185 185 189 189 191 193 192 191 190 191 192 205 215 227 241 246 265 288 310 302 321 330 334 332 329 329 332 340 332 335 334 332 330 328 326 326 325 325 323 321 319 318 320
197 194 194 195 194 193 188 187 191 195 199 206 216 219 232 243 253 270 282 277 292 314 321 324 319 315 321 324 320 319 320 321 324 323 320 319 318 317 318 320 320 315 313 315
201 201 202 199 198 195 193 193 196 200 207 218 219 219 230 245 262 265 277 292 295 301 309 307 303 311 319 320 309 307 309 310 312 311 309 307 309 310 312 314 314 317 312 309
204 202 198 195 196 196 198 197 200 206 213 218 217 223 243 267 279 283 280 281 289 288 294 292 302 304 312 314 305 304 305 303 301 303 300 299 303 303 305 305 306 306 307 306
204 203 199 199 200 199 199 202 207 213 219 218 223 239 256 275 282 277 284 287 285 285 282 285 296 299 303 299 300 303 304 302 298 294 294 292 293 297 300 300 300 299 295 297
207 204 203 202 202 203 204 207 210 217 216 219 230 244 267 286 295 296 295 298 294 287 281 277 284 292 295 294 295 298 302 303 304 297 288 290 293 293 295 297 294 296 292 291
206 207 206 203 204 205 209 211 210 211 215 216 224 245 271 290 295 293 297 298 293 285 282 284 287 294 299 298 294 297 301 304 302 300 295 290 290 291 293 295 291 289 288 288